Regional Weather Roundup
Issued by NWS

Home | Current Version | Previous Version | Graphics & Text | Print | Product List | Glossary On
Versions: 1 2 3 4 5 6 7 8 9 10 11 12 13 14 15 16 17 18 19 20 21 22 23 24 25 26 27 28 29 30 31 32 33 34 35 36 37 38 39 40 41 42 43 44 45 46 47 48 49 50
000
ASUS43 KDMX 151801
RWRIA

WEATHER ROUNDUP FOR IOWA
NATIONAL WEATHER SERVICE DES MOINES IA
1200 PM CST FRI DEC 15 2017

NOTE: "FAIR" INDICATES FEW OR NO CLOUDS BELOW 12,000 FEET WITH NO
SIGNIFICANT WEATHER AND/OR OBSTRUCTIONS TO VISIBILITY.

* - THESE STATIONS ARE NOT NWS STATIONS...THUS NOT UNDER NWS
QUALITY CONTROL.  THEY ALSO DO NOT REPORT WEATHER SUCH
AS PRECIPITATION OR FOG.

IAZ001>003-012>014-020>022-031>034-043>046-151900-
   NORTHWEST IOWA

CITY           SKY/WX    TMP DP  RH WIND       PRES   REMARKS
CARROLL *      MOSUNNY   41  23  48 W22       29.91F
CHEROKEE *     MOSUNNY   42  24  48 W12G21    29.88F
DENISON *      SUNNY     41  23  48 W18G25    29.93F
LE MARS *      PTSUNNY   41  25  52 SW14      29.88F
ORANGE CITY *  MOSUNNY   43  28  56 W14       29.86F
SHELDON *      PTSUNNY   39  27  60 SW13      29.84F WCI  32
SIOUX CITY     PTSUNNY   42  26  53 SW14      29.91F
6HR MIN TEMP:  32; 6HR MAX TEMP:  43;

SPENCER        MOSUNNY   38  28  67 W14       29.87F WCI  30
6HR MIN TEMP:  30; 6HR MAX TEMP:  38;

STORM LAKE *   PTSUNNY   39  23  52 W18G24    29.88F WCI  30
$$

IAZ055>058-069>071-079>083-090>094-151900-
   SOUTHWEST IOWA

CITY           SKY/WX    TMP DP  RH WIND       PRES   REMARKS
ATLANTIC *     SUNNY     43  25  49 SW23G32   29.97F
AUDUBON *      CLOUDY    43  25  49 SW20G25   29.94F
CLARINDA *     SUNNY     43  19  39 SW20G26   30.02F
COUNCIL BLFS * SUNNY     41  25  52 SW20      29.97F
CRESTON *      MOSUNNY   43  19  39 SW20G31   29.98F
HARLAN  *      MOSUNNY   41  23  48 W21G28    29.98F
LAMONI         MOSUNNY   41  21  44 W22       30.01F
6HR MIN TEMP:  29; 6HR MAX TEMP:  41;

RED OAK *      MOSUNNY   45  23  42 SW20G30   29.98F
SHENANDOAH *   SUNNY     45  21  39 SW22G30   30.01F
$$

IAZ047>049-059>061-072>074-084-151900-
   CENTRAL IOWA

CITY           SKY/WX    TMP DP  RH WIND       PRES   REMARKS
AMES           CLOUDY    42  27  55 W21G28    29.92F
6HR MIN TEMP:  28; 6HR MAX TEMP:  42;

ANKENY *       MOSUNNY   41  25  52 W17       29.96F
BOONE *        MOSUNNY   41  25  52 W18G25    29.90F
CHARITON *     CLOUDY    39  23  52 W18G25    29.97F WCI  30
DES MOINES     CLOUDY    43  24  47 W18       29.95F
6HR MIN TEMP:  29; 6HR MAX TEMP:  43;

GRINNELL*      CLOUDY    36  26  68 SW15      29.95F WCI  26
KNOXVILLE *    CLOUDY    41  21  45 W18G24    29.95F
MARSHALLTOWN   CLOUDY    37  26  64 W16       29.91F WCI  28
6HR MIN TEMP:  24; 6HR MAX TEMP:  37;

NEWTON *       CLOUDY    37  27  65 W10G16    29.95F WCI  30
PELLA *        CLOUDY    39  24  55 W14       29.97F WCI  31
PERRY *          N/A     41  23  48 W23       29.94F
$$

IAZ004>006-015-016-023>025-035-036-151900-
   NORTH CENTRAL IOWA

CITY           SKY/WX    TMP DP  RH WIND       PRES   REMARKS
ALGONA *       MOSUNNY   39  30  70 W13       29.88F WCI  32
CLARION *      CLOUDY    37  30  75 W17       29.88F WCI  28
ESTHERVILLE    CLOUDY    36  28  73 W14       29.86F WCI  27
6HR MIN TEMP:  28; 6HR MAX TEMP:  36;

FORT DODGE *   MOSUNNY   38  26  62 W13       29.90F WCI  30
MASON CITY     CLOUDY    35  28  75 W17       29.88F WCI  25
6HR MIN TEMP:  26; 6HR MAX TEMP:  36; 6HR PCP: TRACE;

FOREST CITY *  CLOUDY    36  30  80 W12       29.87F WCI  27
WEBSTER CITY * PTSUNNY   39  27  60 W20       29.87F WCI  30
IOWA FALLS *   CLOUDY    38  28  69 W17       29.91F WCI  28
$$

IAZ007>011-017>019-026>030-037>042-050>054-066-151900-
   NORTHEAST IOWA

CITY           SKY/WX    TMP DP  RH WIND       PRES   REMARKS
CEDAR RAPIDS   CLOUDY    34  25  69 W17       29.93F WCI  23
6HR MIN TEMP:  19; 6HR MAX TEMP:  34; 6HR PCP: TRACE;

CHARLES CITY * LGT SNOW  34  32  93 W12G17    29.88F WCI  25
CLINTON *      MIX PCPN  31  24  75 SW15      29.94F WCI  20
DECORAH *      CLOUDY    30  27  86 VRB5      29.85F WCI  25
DUBUQUE        CLOUDY    29  23  78 W17       29.89F WCI  17
6HR MIN TEMP:  21; 6HR MAX TEMP:  29;

MONTICELLO *   CLOUDY    32  25  74 MISG      29.92S
OELWEIN *      CLOUDY    32  30  93 W14       29.89F WCI  22
WATERLOO       CLOUDY    34  25  69 SW13      29.90F WCI  25
6HR MIN TEMP:  23; 6HR MAX TEMP:  34; 6HR PCP: TRACE;

$$

IAZ064-065-067-068-078-151900-
   EAST CENTRAL IOWA

CITY           SKY/WX    TMP DP  RH WIND       PRES   REMARKS
DAVENPORT      CLOUDY    32  22  66 SW15      29.97F WCI  22
6HR MIN TEMP:  22; 6HR MAX TEMP:  32; 6HR PCP: TRACE;

IOWA CITY      CLOUDY    35  24  64 SW12      29.97F WCI  27
6HR MIN TEMP:  22; 6HR MAX TEMP:  35; 6HR PCP: TRACE;

MT. PLEASANT * CLOUDY    36  22  57 SW14      30.00F WCI  27
MUSCATINE *    CLOUDY    36  21  55 SW13      29.98F WCI  27
QUAD CITIES    CLOUDY    33  23  66 SW12      29.96F WCI  24
6HR MIN TEMP:  26; 6HR MAX TEMP:  34;

$$

IAZ062-063-075>077-085>089-095>099-151900-
   SOUTHEAST IOWA

CITY           SKY/WX    TMP DP  RH WIND       PRES   REMARKS
BURLINGTON     CLOUDY    35  22  58 SW12      30.00F WCI  27
6HR MIN TEMP:  25; 6HR MAX TEMP:  35;

FAIRFIELD *    CLOUDY    36  21  55 SW13      29.98F WCI  27
FORT MADISON * CLOUDY    36  21  55 SW12      30.01F WCI  27
KEOKUK *       CLOUDY    37  21  52 W15       30.01F WCI  28
OSKALOOSA *    CLOUDY    37  24  60 W16       29.97F WCI  28
OTTUMWA        CLOUDY    39  23  52 W15       29.97F WCI  31
6HR MIN TEMP:  21; 6HR MAX TEMP:  39;

WASHINGTON *   MOSUNNY   36  25  64 SW15G21   29.98F WCI  26
$$

ABBREVIATIONS USED IN REMARKS
   TC - TEMPERATURES IN CELSIUS
  WCI - WIND CHILL INDEX
   HX - HEAT INDEX
  VSB - VISIBILITY
$$





USA.gov is the U.S. government's official web portal to all federal, state and local government web resources and services.